Location: Newark
(45.2500°N, 7.5833°E)
Time: 02:16:16
(UTC+00:00)

Transit 2A - Visible Passes

Search period start: 29 January 2020 00:00
Search period end: 08 February 2020 00:00
Orbit: 601 x 958 km, 66.7° (Epoch: 28 January)

Date Brightness Start Highest point End Pass type
(mag) Time Alt. Az. Time Alt. Az. Time Alt. Az.
29 Jan 7.0 17:19:26 10° SSE 17:22:33 19° ESE 17:24:58 13° ENE visible
29 Jan 6.3 19:01:06 10° SW 19:05:19 47° NW 19:05:30 47° NW visible
30 Jan 5.6 18:26:47 10° SW 18:31:09 72° NW 18:32:58 34° NNE visible
30 Jan 8.7 20:13:09 10° WNW 20:13:30 11° WNW 20:13:30 11° WNW visible
31 Jan 5.4 17:52:39 10° SSW 17:57:02 76° ESE 18:00:21 17° NE visible
31 Jan 8.0 19:37:51 10° W 19:40:42 17° NW 19:40:52 17° NW visible
01 Feb 5.8 17:18:44 10° S 17:22:57 48° ESE 17:27:10 10° NE visible
01 Feb 7.7 19:02:53 10° W 19:06:20 22° NW 19:08:11 17° N visible
02 Feb 7.2 18:28:09 10° WSW 18:32:02 31° NW 18:35:24 13° NNE visible
03 Feb 6.6 17:53:37 10° SW 17:57:47 44° NW 18:02:00 10° NNE visible
04 Feb 5.9 17:19:16 10° SW 17:23:35 66° NW 17:27:57 10° NNE visible
04 Feb 8.3 19:05:54 10° WNW 19:07:39 12° NNW 19:09:26 10° N visible
05 Feb 8.1 18:30:31 10° WNW 18:33:13 16° NW 18:35:57 10° N visible
06 Feb 7.7 17:55:29 10° W 17:58:50 21° NW 18:02:13 10° N visible
07 Feb 7.3 17:20:43 10° WSW 17:24:30 29° NW 17:28:22 10° NNE visible
